User: anonymous   Login
Location: Baix
(44.7118°N, 4.7648°E)
Time: 18:33:45
(UTC+00:00)
Language:

CZ-2D R/B - Orbit

View from above orbital plane
View from above orbital plane
View from above satellite
View from above satellite

Ground track
Ground track

The orbit data is extracted from the following two-line orbital elements,

1 37932U 11068C   20298.47453251  .00000028  00000-0  32089-4 0  9998
2 37932  98.6655 232.3596 0038161  91.2488  23.7552 14.22047700463437
Epoch (UTC): 24 October 2020 11:23:19
Eccentricity: 0.0038161
inclination: 98.6655°
perigee height: 791 km
apogee height: 846 km
right ascension of ascending node: 232.3596°
argument of perigee: 91.2488°
revolutions per day: 14.22047700
mean anomaly at epoch: 23.7552°
orbit number at epoch: 46343

The dashed part of the orbit path shows where the satellite is in the earth's shadow,  

DLR